{"data":{"norad_id":57092,"epoch":"2026-05-25T01:30:00.355968Z","epoch_age_seconds":62896,"freshness":"FRESH","line1":"1 57092U 23088AW  26145.06250412  .00002201  00000+0  89505-4 0  9997","line2":"2 57092  43.0069  24.5488 0001670 278.8556  81.2106 15.27576633162184","mean_motion":15.27576633,"eccentricity":0.000167,"inclination_deg":43.0069,"raan_deg":24.5488,"arg_perigee_deg":278.8556,"mean_anomaly_deg":81.2106,"bstar":8.9505e-5,"rev_number":16218,"period_min":94.26695649121,"perigee_km":481.91335830571,"apogee_km":484.20499782918,"semimajor_km":6861.1961780674,"source":"CELESTRAK","updated_at":"2026-05-25T13:38:18.218185Z"}}